When you browse on this site, cookies collect data to enhance your experience and personalize the content and advertising you see.
Visit our Privacy Policy to learn more. By continuing to use the site, you agree to this use of cookies and data.
  • In Hungary
  • List of Countries
  • For 7 days
  • Water Temperature
  • Weather Map
  • News
  • Weather Widgets
  • user-avatar
    Login

    Hourly Weather Turgenevo

    Today, 16 October, Wednesday

    Time Temperature Precipitation Wind Pressure Humidity
    00:00 +2°C° 0 mm 5 mps 757 mmHg 71%
    01:00 +2°C° 0 mm 5 mps 758 mmHg 71%
    02:00 +1°C° 0 mm 5 mps 758 mmHg 70%
    03:00 +1°C° 0 mm 5 mps 759 mmHg 70%
    04:00 +1°C° 0 mm 4 mps 759 mmHg 70%
    05:00 0°C° 0 mm 4 mps 760 mmHg 71%
    06:00 +1°C° 0 mm 3 mps 760 mmHg 72%
    07:00 +1°C° 0 mm 3 mps 761 mmHg 71%
    08:00 +2°C° 0 mm 3 mps 761 mmHg 71%
    09:00 +2°C° 0 mm 3 mps 761 mmHg 70%
    10:00 +3°C° 0 mm 3 mps 762 mmHg 68%
    11:00 +4°C° 0 mm 3 mps 762 mmHg 67%
    12:00 +5°C° 0 mm 2 mps 762 mmHg 65%
    13:00 +6°C° 0 mm 2 mps 762 mmHg 65%
    14:00 +6°C° 0 mm 2 mps 762 mmHg 64%
    15:00 +7°C° 0 mm 1 mps 762 mmHg 64%
    16:00 +6°C° 0 mm 1 mps 762 mmHg 68%
    17:00 +5°C° 0 mm 0 mps 762 mmHg 72%
    18:00 +4°C° 0 mm 0 mps 762 mmHg 76%
    19:00 +4°C° 0 mm 0 mps 762 mmHg 77%
    20:00 +4°C° 0 mm 1 mps 762 mmHg 78%
    21:00 +4°C° 0 mm 1 mps 762 mmHg 79%
    22:00 +3°C° 0.2 mm 2 mps 762 mmHg 80%
    23:00 +4°C° 0.2 mm 2 mps 762 mmHg 80%

    Tomorrow, 17 October, Thursday

    Time Temperature Precipitation Wind Pressure Humidity
    00:00 +3°C° 0.2 mm 3 mps 762 mmHg 80%
    01:00 +3°C° 0.2 mm 3 mps 762 mmHg 79%
    02:00 +4°C° 0.2 mm 2 mps 762 mmHg 78%
    03:00 +4°C° 0.2 mm 2 mps 761 mmHg 78%
    04:00 +3°C° 0 mm 3 mps 761 mmHg 76%
    05:00 +3°C° 0 mm 3 mps 760 mmHg 75%
    06:00 +3°C° 0 mm 4 mps 760 mmHg 74%
    07:00 +3°C° 0 mm 5 mps 759 mmHg 72%
    08:00 +3°C° 0 mm 6 mps 759 mmHg 71%
    09:00 +4°C° 0 mm 6 mps 758 mmHg 70%
    10:00 +5°C° 0 mm 7 mps 758 mmHg 69%
    11:00 +8°C° 0 mm 7 mps 757 mmHg 68%
    12:00 +9°C° 0 mm 7 mps 757 mmHg 67%
    13:00 +10°C° 0 mm 7 mps 756 mmHg 67%
    14:00 +10°C° 0 mm 7 mps 756 mmHg 67%
    15:00 +11°C° 0 mm 7 mps 756 mmHg 67%
    16:00 +10°C° 0 mm 6 mps 755 mmHg 70%
    17:00 +9°C° 0 mm 6 mps 755 mmHg 72%
    18:00 +8°C° 0 mm 6 mps 755 mmHg 74%
    19:00 +8°C° 0 mm 6 mps 755 mmHg 77%
    20:00 +8°C° 0 mm 6 mps 754 mmHg 79%
    21:00 +8°C° 0 mm 5 mps 754 mmHg 82%
    22:00 +8°C° 0 mm 5 mps 754 mmHg 83%
    23:00 +8°C° 0 mm 5 mps 754 mmHg 84%

    Day after tomorrow, 18 October, Friday

    Time Temperature Precipitation Wind Pressure Humidity
    00:00 +8°C° 0 mm 5 mps 753 mmHg 85%
    01:00 +7°C° 0 mm 5 mps 753 mmHg 86%
    02:00 +7°C° 0 mm 5 mps 752 mmHg 88%
    03:00 +7°C° 0 mm 4 mps 752 mmHg 89%
    04:00 +7°C° 0 mm 4 mps 752 mmHg 90%
    05:00 +7°C° 0 mm 4 mps 751 mmHg 92%
    06:00 +7°C° 0 mm 4 mps 751 mmHg 93%
    07:00 +7°C° 0 mm 4 mps 751 mmHg 93%
    08:00 +8°C° 0 mm 5 mps 750 mmHg 92%
    09:00 +9°C° 0 mm 5 mps 750 mmHg 92%
    10:00 +10°C° 0.6 mm 4 mps 750 mmHg 92%
    11:00 +10°C° 0.6 mm 4 mps 750 mmHg 92%
    12:00 +11°C° 0.6 mm 4 mps 750 mmHg 92%
    13:00 +11°C° 0.1 mm 4 mps 750 mmHg 88%
    14:00 +12°C° 0.1 mm 4 mps 751 mmHg 83%
    15:00 +12°C° 0.1 mm 4 mps 751 mmHg 78%
    16:00 +11°C° 0 mm 4 mps 751 mmHg 82%
    17:00 +11°C° 0 mm 4 mps 752 mmHg 86%
    18:00 +10°C° 0 mm 3 mps 752 mmHg 89%
    19:00 +10°C° 0 mm 3 mps 752 mmHg 90%
    20:00 +10°C° 0 mm 3 mps 753 mmHg 92%
    21:00 +10°C° 0 mm 2 mps 753 mmHg 93%
    22:00 +10°C° 0 mm 2 mps 754 mmHg 94%
    23:00 +9°C° 0 mm 2 mps 754 mmHg 95%

    19 October, Saturday

    Time Temperature Precipitation Wind Pressure Humidity
    00:00 +9°C° 0 mm 2 mps 754 mmHg 96%
    01:00 +9°C° 0 mm 2 mps 755 mmHg 95%
    02:00 +8°C° 0 mm 3 mps 755 mmHg 94%
    03:00 +7°C° 0 mm 3 mps 755 mmHg 92%
    04:00 +7°C° 0 mm 3 mps 755 mmHg 92%
    05:00 +5°C° 0 mm 3 mps 756 mmHg 91%
    06:00 +5°C° 0 mm 3 mps 756 mmHg 90%
    07:00 +5°C° 0 mm 3 mps 756 mmHg 90%
    08:00 +5°C° 0 mm 3 mps 757 mmHg 89%
    09:00 +4°C° 0 mm 3 mps 757 mmHg 88%
    10:00 +5°C° 0 mm 3 mps 758 mmHg 87%
    11:00 +6°C° 0 mm 2 mps 758 mmHg 85%
    12:00 +6°C° 0 mm 2 mps 758 mmHg 84%
    13:00 +6°C° 0 mm 2 mps 758 mmHg 84%
    14:00 +7°C° 0 mm 2 mps 759 mmHg 83%
    15:00 +7°C° 0 mm 2 mps 759 mmHg 83%
    16:00 +7°C° 0 mm 2 mps 759 mmHg 84%
    17:00 +7°C° 0 mm 2 mps 759 mmHg 85%
    18:00 +7°C° 0 mm 1 mps 760 mmHg 86%
    19:00 +7°C° 0 mm 1 mps 760 mmHg 87%
    20:00 +7°C° 0 mm 1 mps 760 mmHg 88%
    21:00 +7°C° 0 mm 1 mps 760 mmHg 88%
    22:00 +7°C° 0 mm 1 mps 761 mmHg 89%
    23:00 +7°C° 0 mm 1 mps 761 mmHg 90%

    20 October, Sunday

    Time Temperature Precipitation Wind Pressure Humidity
    00:00 +6°C° 0 mm 1 mps 761 mmHg 91%
    01:00 +6°C° 0 mm 1 mps 761 mmHg 91%
    02:00 +6°C° 0 mm 1 mps 761 mmHg 91%
    03:00 +6°C° 0 mm 1 mps 761 mmHg 91%
    04:00 +7°C° 0 mm 1 mps 761 mmHg 91%
    05:00 +7°C° 0 mm 1 mps 761 mmHg 90%
    06:00 +7°C° 0 mm 1 mps 761 mmHg 90%
    07:00 +7°C° 0 mm 2 mps 761 mmHg 89%
    08:00 +7°C° 0 mm 2 mps 761 mmHg 87%
    09:00 +8°C° 0 mm 2 mps 761 mmHg 86%
    10:00 +9°C° 0 mm 3 mps 761 mmHg 84%
    11:00 +9°C° 0 mm 3 mps 761 mmHg 83%
    12:00 +10°C° 0 mm 3 mps 761 mmHg 81%
    13:00 +11°C° 0 mm 3 mps 761 mmHg 81%
    14:00 +11°C° 0 mm 4 mps 760 mmHg 81%
    15:00 +12°C° 0 mm 4 mps 760 mmHg 80%
    16:00 +11°C° 0 mm 3 mps 760 mmHg 84%
    17:00 +11°C° 0 mm 3 mps 760 mmHg 88%
    18:00 +10°C° 0 mm 3 mps 760 mmHg 91%
    19:00 +10°C° 0 mm 3 mps 760 mmHg 91%
    20:00 +10°C° 0 mm 4 mps 760 mmHg 91%
    21:00 +10°C° 0 mm 4 mps 760 mmHg 91%
    22:00 +10°C° 0 mm 3 mps 760 mmHg 92%
    23:00 +10°C° 0 mm 3 mps 760 mmHg 93%

    21 October, Monday

    Time Temperature Precipitation Wind Pressure Humidity
    00:00 +10°C° 0 mm 3 mps 760 mmHg 94%
    01:00 +10°C° 0 mm 3 mps 760 mmHg 94%
    02:00 +10°C° 0 mm 2 mps 760 mmHg 94%
    03:00 +10°C° 0 mm 2 mps 760 mmHg 94%
    04:00 +9°C° 0 mm 2 mps 760 mmHg 94%
    05:00 +9°C° 0 mm 2 mps 760 mmHg 94%
    06:00 +9°C° 0 mm 2 mps 760 mmHg 94%
    07:00 +10°C° 0 mm 2 mps 760 mmHg 92%
    08:00 +10°C° 0 mm 3 mps 760 mmHg 91%
    09:00 +11°C° 0 mm 3 mps 760 mmHg 89%
    10:00 +12°C° 0 mm 3 mps 760 mmHg 85%
    11:00 +13°C° 0 mm 3 mps 759 mmHg 81%
    12:00 +14°C° 0 mm 4 mps 759 mmHg 77%
    13:00 +14°C° 0 mm 4 mps 759 mmHg 77%
    14:00 +14°C° 0 mm 4 mps 758 mmHg 77%
    15:00 +14°C° 0 mm 4 mps 758 mmHg 77%
    16:00 +13°C° 0 mm 4 mps 758 mmHg 80%
    17:00 +13°C° 0 mm 4 mps 757 mmHg 82%
    18:00 +12°C° 0 mm 4 mps 757 mmHg 85%
    19:00 +12°C° 0 mm 5 mps 756 mmHg 82%
    20:00 +12°C° 0 mm 5 mps 756 mmHg 78%
    21:00 +11°C° 0 mm 6 mps 755 mmHg 75%
    22:00 +11°C° 0 mm 6 mps 755 mmHg 76%
    23:00 +11°C° 0 mm 6 mps 754 mmHg 77%
    Show more